Flag for Germany Weather past 2 weeks in Verden (Aller), Lower Saxony, Germany

Now
75 °F

Passing clouds.


Feels Like: 78 °F
Forecast: 58 / 73 °F
Wind: 13 mph from East

Location: Bremen Airport

Current Time: Sep 17, 2014 at 4:01:24 PM

Latest Report: Sep 17, 2014 at 3:20 PM


Visibility: N/A

Pressure: 29.95 "Hg

Humidity: 50%

Dew point: 55 °F

Location of Verden (Aller)Location

Historic Weather in Verden (Aller) — Graph

°F

Verden (Aller) temperature yesterday

Maximum temperature yesterday: 77 °F (at 3:50 PM)
Minimum temperature yesterday: 55 °F (at 5:50 AM)
Average temperature yesterday: 66 °F

Past Weeks' High & Low Weather Summary

 TemperatureHumidityPressure
High79 °F (Sep 5, 2:50 PM)100% (Sep 6, 3:50 AM)30.30 "Hg (Sep 6, 3:50 AM)
Low50 °F (Sep 3, 4:50 AM)46% (Sep 8, 3:50 PM)29.86 "Hg (Sep 6, 3:50 PM)
Average62 °F80%30.08 "Hg
* Reported Sep 2 2:20 PM — Sep 17 2:50 PM, Verden (Aller), Weather by CustomWeather, © 2014

Note: Actual official high and low records may vary slightly from our data, if they occured in-between our weather recording intervals... More about our weather records

Advertising

Verden (Aller) weather history for previous 24 hours

 ConditionsComfort  
Time TempWeatherWind HumidityBarometerVisibility
2:50 PM
Sep 17
75 °FPassing clouds.13 mph54%29.95 "HgN/A
2:20 PM73 °FPassing clouds.15 mph53%29.95 "HgN/A
1:50 PM73 °FPassing clouds.13 mph57%29.98 "HgN/A
1:20 PM72 °FPassing clouds.12 mph61%29.98 "HgN/A
12:50 PM72 °FPassing clouds.12 mph61%29.98 "HgN/A
12:20 PM68 °FPassing clouds.9 mph69%29.98 "HgN/A
11:50 AM68 °FSunny.8 mph69%29.98 "Hg10 mi
11:20 AM66 °FSunny.10 mph73%30.01 "Hg10 mi
10:50 AM66 °FSunny.9 mph73%30.01 "Hg10 mi
10:20 AM64 °FSunny.9 mph78%30.01 "Hg10 mi
9:50 AM64 °FSunny.9 mph78%30.01 "Hg10 mi
9:20 AM63 °FSunny.9 mph83%30.01 "Hg10 mi
8:50 AM61 °FSunny.9 mph88%30.01 "Hg10 mi
8:20 AM61 °FSunny.8 mph83%30.01 "Hg10 mi
7:50 AM59 °FClear.9 mph88%30.01 "Hg10 mi
7:20 AM59 °FClear.9 mph88%30.01 "Hg10 mi
6:50 AM59 °FClear.9 mph88%30.01 "Hg10 mi
6:20 AM59 °FClear.9 mph88%30.01 "Hg10 mi
5:50 AM59 °FClear.8 mph88%30.01 "Hg10 mi
5:20 AM59 °FClear.7 mph88%30.01 "Hg10 mi
4:50 AM59 °FClear.6 mph88%30.01 "Hg10 mi
4:20 AM59 °FClear.9 mph94%30.01 "Hg10 mi
3:50 AM59 °FClear.8 mph88%30.01 "Hg10 mi
3:20 AM61 °FClear.8 mph88%30.01 "Hg10 mi
2:50 AM61 °FClear.8 mph88%30.01 "Hg10 mi
2:20 AM63 °FClear.9 mph83%30.01 "Hg10 mi
1:50 AM63 °FClear.9 mph83%30.01 "Hg10 mi
1:20 AM63 °FClear.8 mph88%30.01 "Hg10 mi
12:50 AM63 °FClear.8 mph88%30.01 "Hg10 mi
12:20 AM63 °FClear.8 mph88%30.01 "Hg10 mi
11:50 PM
Sep 16
64 °FClear.7 mph83%30.01 "Hg10 mi
11:20 PM64 °FClear.8 mph83%30.01 "Hg10 mi
10:50 PM66 °FClear.8 mph78%30.01 "Hg10 mi
10:20 PM66 °FClear.9 mph83%30.01 "Hg10 mi
9:50 PM66 °FClear.9 mph83%30.04 "Hg10 mi
9:20 PM68 °FClear.9 mph78%30.01 "Hg10 mi
8:50 PM68 °FClear.9 mph78%30.01 "Hg10 mi
8:20 PM70 °FSunny.9 mph73%30.01 "Hg10 mi
7:50 PM70 °FSunny.9 mph73%30.01 "Hg10 mi
7:20 PM72 °FSunny.9 mph69%30.01 "Hg10 mi
6:50 PM72 °FSunny.9 mph69%30.01 "Hg10 mi
6:20 PM73 °FPassing clouds.8 mph65%30.01 "HgN/A
5:50 PM75 °FPassing clouds.9 mph57%29.98 "HgN/A
5:20 PM73 °FPassing clouds.10 mph61%30.01 "HgN/A
4:50 PM77 °FPassing clouds.10 mph54%30.01 "HgN/A
4:20 PM77 °FPassing clouds.12 mph54%30.01 "HgN/A
Weather by CustomWeather, © 2014

See weather overviewHow to use our weather pages